[[{"header":{"parameterUnit":"m.s-1","parameterCategory":1,"la1":30.2991,"la2":30.254,"lo1":-89.0895,"lo2":-89.0444,"dy":0.0017,"dx":0.0017,"nx":28,"ny":28,"refTime":"2025-07-10T21:00:00:Z","depth":0,"parameterNumber":2,"parameterNumberName":"U-component_of_WINDS"},"data":[0,0,0,0,0,0,0,0,0,0,0,0,0,0,0,0,0,0,0,0,0,0,0,0,0,0,0,0,0,0,0,0,0,0,0,0,0,0,0,0,0,0,0,0,0,0,0,0,0,0,0,0,0,0,0,0,0,0,2.4763,2.4765,0,2.4939,2.4941,2.4943,2.4936,2.4933,2.4931,2.4928,2.511,2.5117,2.5124,0,0,0,0,0,0,0,0,0,0,0,0,0,2.4421,2.4427,2.4763,2.4765,2.4767,2.4938,2.4941,2.4943,2.4936,2.4933,2.493,2.4927,2.5108,2.5116,2.5125,0,0,0,0,0,0,0,0,0,0,0,0,0,2.458,2.4429,2.4762,2.4784,2.4788,2.4938,2.4941,2.4944,2.4937,2.4933,2.4929,2.4926,2.5105,2.5115,2.5126,2.5267,0,0,2.5159,2.5163,0,0,0,0,0,0,0,0,2.4571,2.4593,2.4779,2.4783,2.4787,2.4911,2.4887,2.5052,2.4938,2.488,2.4928,2.4924,2.5047,2.5062,2.5104,2.5275,2.5283,2.516,2.5166,2.5171,2.5174,0,0,0,0,0,0,0,2.456,2.4585,2.4832,2.4781,2.4787,2.4785,2.4804,2.4918,2.4982,2.4885,2.4885,2.4906,2.5049,2.5093,2.5108,2.5285,2.5159,2.5169,2.5176,2.518,2.558,2.5584,0,0,0,0,0,0,2.4544,2.4576,2.4827,2.4838,2.4668,2.4794,2.4815,2.4875,2.4981,2.4994,2.4909,2.4905,2.5077,2.5095,2.5114,2.5285,2.5171,2.5181,2.5187,2.5576,2.5581,2.5585,0,0,0,0,0,0,2.4537,2.4567,2.482,2.4707,2.4739,2.4804,2.4872,2.4881,2.4925,2.4999,2.501,2.4942,2.5075,2.5099,2.5228,2.5291,2.5186,2.5195,2.5571,2.5577,2.5583,2.5628,0,0,0,0,0,0,2.4527,2.4564,2.4618,2.4708,2.4745,2.4931,2.4876,2.4887,2.4944,2.494,2.5034,2.5046,2.5074,2.5212,2.5239,2.5304,2.5204,2.5565,2.5574,2.5581,2.5621,2.5635,2.5647,0,0,0,0,0,2.4515,2.4624,2.4621,2.4651,2.4814,2.4935,2.4956,2.4985,2.4949,2.5004,2.5051,2.5043,2.528,2.5226,2.5256,2.5325,2.5562,2.5571,2.558,2.5615,2.5632,2.5646,0,0,0,0,0,0,2.4541,2.4637,2.4634,2.4776,2.4847,2.4933,2.5003,2.5002,2.5086,2.5079,2.5112,2.5134,2.5263,2.5307,2.5245,2.5466,2.5416,2.5432,2.5432,2.5449,2.5462,2.5448,2.5213,0,0,0,0,0,2.4563,2.4653,2.4732,2.4849,2.4885,2.4938,2.4992,2.5008,2.5083,2.5114,2.517,2.5244,2.5335,2.5394,2.5482,2.5627,2.5647,2.5689,2.5702,2.5712,2.5726,2.5805,2.5824,2.5616,2.5616,2.5616,0,0,2.461,2.4673,2.4728,2.4856,2.4913,2.5005,2.4963,2.5063,2.5132,2.5129,2.5254,2.5298,2.5383,2.552,2.5583,2.556,2.5787,2.5724,2.5732,2.574,2.5816,2.5836,2.5853,2.5623,2.5622,2.562,0,0,2.4743,2.48,2.4903,2.4961,2.5048,2.5082,2.5107,2.5193,2.5222,2.5348,2.5347,2.5429,2.5586,2.5646,2.5697,2.585,2.5846,2.5878,2.5945,2.6021,2.6038,2.6052,2.6107,2.6126,2.5891,2.5891,2.5891,0,2.479,2.4929,2.4957,2.5057,2.5113,2.5113,2.5218,2.5273,2.5384,2.5423,2.5396,2.5591,2.5648,2.5799,2.5836,2.5877,2.5906,2.5867,2.6033,2.6048,2.6062,2.6114,2.6134,2.5894,2.5894,2.5894,2.5893,0,2.4982,2.5078,2.5152,2.5258,2.5322,2.5424,2.5467,2.5529,2.5539,2.5577,2.5704,2.5772,2.5874,2.5911,2.5922,2.6063,2.6046,2.6026,2.5976,2.6085,2.6134,2.6154,2.5899,2.5898,2.5897,2.5896,0,0,2.5137,2.5256,2.5283,2.5331,2.5426,2.55,2.5602,2.57,2.5752,2.5828,2.5914,2.6046,2.6027,2.6085,2.6103,2.617,2.6286,2.6141,2.6144,2.6165,2.6444,2.6459,2.6481,2.6284,2.6287,2.6291,2.6437,0,2.5279,2.5459,2.5487,2.5645,2.5733,2.5735,2.5823,2.5891,2.5928,2.6008,2.6049,2.6142,2.611,2.6145,2.6211,2.6258,2.6343,2.6248,2.6364,2.6367,2.6342,2.6507,2.6524,2.6659,2.6457,2.646,2.6462,0,2.5469,2.5549,2.5716,2.5797,2.5836,2.5915,2.6006,2.6083,2.616,2.6182,2.6245,2.6255,2.636,2.6306,2.6451,2.6386,2.6435,2.6465,2.6471,2.6483,2.6421,2.6523,2.6702,2.6722,2.6493,2.6491,2.6488,0,2.5564,2.5714,2.5833,2.5874,2.5972,2.6027,2.6071,2.6144,2.62,2.6281,2.6318,2.6409,2.6459,2.653,2.6564,2.6522,2.6707,2.6656,2.6728,2.6727,2.6767,2.6764,2.6956,2.6799,2.6799,2.6798,2.6798,0,2.572,2.5822,2.5877,2.595,2.6064,2.6094,2.6206,2.6248,2.6313,2.6394,2.6401,2.6477,2.6517,2.66,2.6627,2.6742,2.6765,2.6786,2.6792,2.6785,2.6783,2.6818,2.6809,2.6804,2.6803,2.6801,2.6801,0,2.5846,2.5887,2.6017,2.6098,2.6121,2.6201,2.6272,2.6342,2.6378,2.6481,2.6507,2.6564,2.666,2.6701,2.6821,2.6839,2.6971,2.697,2.6945,2.6947,2.7016,2.7009,2.7238,2.7269,2.7091,2.7093,2.7095,0,2.5943,2.6021,2.611,2.6165,2.621,2.6298,2.6355,2.6388,2.6447,2.654,2.6599,2.6696,2.6775,2.6929,2.6982,2.7073,2.7074,2.7148,2.7088,2.7078,2.7074,2.7069,2.7077,2.7158,2.716,2.7162,2.7163,0,2.6109,2.6125,2.6208,2.6297,2.6365,2.6437,2.6508,2.6552,2.6596,2.6662,2.6761,2.6822,2.6943,2.7038,2.7132,2.7177,2.7178,2.7181,2.7203,2.7197,2.7178,2.7188,2.6974,2.7176,2.7175,2.7174,2.7173,2.7172,2.6224,2.6292,2.6366,2.6457,2.6513,2.6578,2.6648,2.6692,2.6775,2.6875,2.689,2.6995,2.7068,2.7194,2.7243,2.7325,2.7307,2.7338,2.7346,2.7353,2.7357,2.7165,2.7343,2.7342,2.7342,2.7342,2.7342,0,2.639,2.6437,2.652,2.6618,2.6689,2.6682,2.6759,2.682,2.6912,2.698,2.7057,2.717,2.7262,2.7321,2.7414,2.7469,2.7471,2.7492,2.7488,2.7499,2.7369,2.7341,2.7489,2.7489,2.7489,2.7489,2.7488,2.7488,2.6485,2.6601,2.6625,2.6769,2.6815,2.6917,2.6962,2.7022,2.7076,2.7201,2.7278,2.7315,2.7379,2.7477,2.7561,2.7576,2.761,2.7632,2.7646,2.7523,2.7508,2.7493,2.7467,2.7639,2.7639,2.7769,2.777,2.7771]},{"header":{"parameterUnit":"m.s-1","parameterCategory":1,"la1":30.2991,"la2":30.254,"lo1":-89.0895,"lo2":-89.0444,"dy":0.0017,"dx":0.0017,"nx":28,"ny":28,"refTime":"2025-07-10T21:00:00:Z","depth":0,"parameterNumber":3,"parameterNumberName":"V-component_of_WINDS"},"data":[0,0,0,0,0,0,0,0,0,0,0,0,0,0,0,0,0,0,0,0,0,0,0,0,0,0,0,0,0,0,0,0,0,0,0,0,0,0,0,0,0,0,0,0,0,0,0,0,0,0,0,0,0,0,0,0,0,0,-0.583,-0.583,0,-0.5825,-0.5825,-0.5825,-0.5864,-0.5866,-0.5867,-0.5868,-0.5857,-0.5856,-0.5855,0,0,0,0,0,0,0,0,0,0,0,0,0,-0.5869,-0.5868,-0.583,-0.583,-0.583,-0.5825,-0.5825,-0.5825,-0.5864,-0.5866,-0.5867,-0.5868,-0.5858,-0.5856,-0.5855,0,0,0,0,0,0,0,0,0,0,0,0,0,-0.5856,-0.5867,-0.583,-0.5849,-0.5851,-0.5825,-0.5825,-0.5825,-0.5864,-0.5866,-0.5867,-0.5869,-0.5858,-0.5856,-0.5854,-0.5808,0,0,-0.5848,-0.5848,0,0,0,0,0,0,0,0,-0.5857,-0.5855,-0.5846,-0.5848,-0.5849,-0.5847,-0.5835,-0.5819,-0.5863,-0.5859,-0.5868,-0.587,-0.5852,-0.5851,-0.5846,-0.5808,-0.5808,-0.5848,-0.5847,-0.5846,-0.5846,0,0,0,0,0,0,0,-0.5858,-0.5855,-0.5828,-0.5846,-0.5848,-0.5856,-0.5856,-0.5832,-0.5846,-0.5859,-0.5862,-0.5861,-0.5853,-0.5848,-0.5846,-0.5807,-0.5848,-0.5846,-0.5845,-0.5844,-0.573,-0.5728,0,0,0,0,0,0,-0.5857,-0.5856,-0.5828,-0.5828,-0.5858,-0.5854,-0.5854,-0.5846,-0.5846,-0.5848,-0.586,-0.5863,-0.585,-0.5848,-0.5846,-0.5791,-0.5846,-0.5844,-0.5843,-0.5732,-0.573,-0.5728,0,0,0,0,0,0,-0.5857,-0.5854,-0.5828,-0.5842,-0.584,-0.5852,-0.5842,-0.5845,-0.584,-0.5847,-0.5849,-0.5852,-0.5852,-0.5849,-0.5818,-0.5791,-0.5843,-0.5842,-0.5734,-0.5731,-0.5729,-0.5681,0,0,0,0,0,0,-0.5858,-0.5854,-0.5838,-0.5842,-0.5839,-0.5801,-0.5841,-0.5844,-0.5837,-0.5841,-0.584,-0.5841,-0.5853,-0.582,-0.5816,-0.5789,-0.584,-0.5737,-0.5733,-0.573,-0.5685,-0.5677,-0.567,0,0,0,0,0,-0.586,-0.5823,-0.5837,-0.5833,-0.5819,-0.5799,-0.5797,-0.5813,-0.5834,-0.5817,-0.5822,-0.5841,-0.5795,-0.5817,-0.5812,-0.5784,-0.5738,-0.5734,-0.573,-0.5688,-0.5678,-0.567,0,0,0,0,0,0,-0.5813,-0.5824,-0.5839,-0.5803,-0.58,-0.5806,-0.5785,-0.5802,-0.5792,-0.5796,-0.5814,-0.5813,-0.5779,-0.5779,-0.5803,-0.5739,-0.577,-0.5765,-0.574,-0.5731,-0.5724,-0.5723,-0.5838,0,0,0,0,0,-0.58,-0.5784,-0.5794,-0.5761,-0.576,-0.5772,-0.5764,-0.5777,-0.5774,-0.5772,-0.5775,-0.5769,-0.5754,-0.5743,-0.5729,-0.5686,-0.5685,-0.5665,-0.5657,-0.5651,-0.5645,-0.5621,-0.5611,-0.5714,-0.5714,-0.5714,0,0,-0.577,-0.5774,-0.5763,-0.5752,-0.5751,-0.5733,-0.5771,-0.5751,-0.5737,-0.5769,-0.5739,-0.5741,-0.5736,-0.5699,-0.5682,-0.5698,-0.5617,-0.5646,-0.5641,-0.5638,-0.5615,-0.5606,-0.5597,-0.5711,-0.5712,-0.5712,0,0,-0.5705,-0.5708,-0.5681,-0.568,-0.5679,-0.5688,-0.5681,-0.5685,-0.5688,-0.5659,-0.5682,-0.5666,-0.5639,-0.5634,-0.5628,-0.5564,-0.558,-0.5559,-0.5519,-0.5495,-0.5487,-0.5479,-0.5454,-0.5445,-0.5554,-0.5554,-0.5554,0,-0.5668,-0.5643,-0.5664,-0.5642,-0.5636,-0.5667,-0.5638,-0.5635,-0.5629,-0.5623,-0.5642,-0.5608,-0.5607,-0.5568,-0.5553,-0.5548,-0.5539,-0.5558,-0.5487,-0.5479,-0.5473,-0.5449,-0.544,-0.5551,-0.5551,-0.5551,-0.5552,0,-0.5596,-0.5578,-0.5556,-0.5551,-0.5543,-0.5518,-0.5533,-0.5522,-0.5536,-0.5542,-0.5512,-0.5513,-0.5499,-0.5491,-0.5504,-0.5454,-0.5463,-0.5484,-0.5514,-0.546,-0.5438,-0.5429,-0.5547,-0.5548,-0.5549,-0.5549,0,0,-0.5499,-0.5508,-0.5499,-0.5497,-0.5499,-0.5485,-0.5461,-0.5449,-0.5438,-0.5433,-0.5412,-0.5389,-0.5408,-0.5402,-0.5414,-0.5394,-0.534,-0.5417,-0.5417,-0.54,-0.5282,-0.5264,-0.5253,-0.5352,-0.5351,-0.5349,-0.5282,0,-0.5435,-0.5395,-0.5414,-0.5371,-0.5354,-0.5384,-0.5363,-0.536,-0.5366,-0.5352,-0.5358,-0.5341,-0.5369,-0.5365,-0.5346,-0.535,-0.5316,-0.5356,-0.533,-0.5328,-0.5327,-0.5242,-0.5223,-0.5159,-0.5273,-0.5272,-0.5271,0,-0.5354,-0.5347,-0.5303,-0.5308,-0.5302,-0.5283,-0.5273,-0.526,-0.5258,-0.5263,-0.5257,-0.5274,-0.5249,-0.5282,-0.5246,-0.5273,-0.5264,-0.5265,-0.5262,-0.5258,-0.5294,-0.5233,-0.5139,-0.5128,-0.5258,-0.5259,-0.526,0,-0.5285,-0.5265,-0.5236,-0.5234,-0.5239,-0.5225,-0.5226,-0.5226,-0.5218,-0.5209,-0.5204,-0.5192,-0.5185,-0.5174,-0.5187,-0.5211,-0.5149,-0.5184,-0.515,-0.515,-0.5133,-0.5134,-0.5034,-0.5132,-0.5133,-0.5133,-0.5133,0,-0.5209,-0.5181,-0.5205,-0.5187,-0.5155,-0.5177,-0.5144,-0.5149,-0.5149,-0.513,-0.5156,-0.5138,-0.5158,-0.5141,-0.5151,-0.5119,-0.5116,-0.5118,-0.512,-0.5114,-0.5113,-0.5106,-0.5109,-0.513,-0.5131,-0.5131,-0.5132,0,-0.5125,-0.5141,-0.5111,-0.512,-0.5121,-0.5097,-0.5104,-0.5086,-0.5095,-0.5072,-0.5067,-0.508,-0.5062,-0.5075,-0.5056,-0.5063,-0.502,-0.503,-0.5021,-0.5022,-0.4987,-0.4989,-0.4877,-0.4862,-0.4973,-0.4972,-0.4971,0,-0.5075,-0.5053,-0.506,-0.5051,-0.5051,-0.5035,-0.5028,-0.5048,-0.5039,-0.5035,-0.5017,-0.5002,-0.499,-0.496,-0.4966,-0.4952,-0.496,-0.4922,-0.4958,-0.4951,-0.4956,-0.4956,-0.4953,-0.4913,-0.4912,-0.4911,-0.491,0,-0.4982,-0.4991,-0.498,-0.4971,-0.4961,-0.4955,-0.4951,-0.4941,-0.4962,-0.495,-0.4933,-0.4924,-0.4906,-0.4889,-0.4878,-0.4877,-0.4895,-0.4899,-0.489,-0.4882,-0.4876,-0.4876,-0.4998,-0.4901,-0.4902,-0.4902,-0.4903,-0.4903,-0.4911,-0.4893,-0.4895,-0.4881,-0.4881,-0.4876,-0.486,-0.4868,-0.4854,-0.4842,-0.4856,-0.4834,-0.4832,-0.4819,-0.4816,-0.4798,-0.4813,-0.4801,-0.4797,-0.4793,-0.4787,-0.4882,-0.4796,-0.4797,-0.4797,-0.4797,-0.4797,0,-0.4817,-0.482,-0.4808,-0.4802,-0.4791,-0.4813,-0.4809,-0.4798,-0.4779,-0.4777,-0.4766,-0.4745,-0.4729,-0.4735,-0.4721,-0.4705,-0.4713,-0.47,-0.47,-0.4699,-0.4776,-0.4783,-0.4694,-0.4694,-0.4694,-0.4694,-0.4694,-0.4694,-0.4766,-0.4737,-0.4746,-0.4717,-0.472,-0.47,-0.4696,-0.4691,-0.469,-0.4666,-0.4654,-0.4659,-0.466,-0.4646,-0.4632,-0.4634,-0.4626,-0.4609,-0.4614,-0.4684,-0.4694,-0.4704,-0.4711,-0.4608,-0.4608,-0.4539,-0.4538,-0.4537]}]]